Nederland, TX

5:44 AM CST on December 03, 2016 (GMT -0600)
Southeast Texas Regional

Weather History for KBPT - February, 2014

Change the Weather History Date:

Wednesday, February 19, 2014

  Actual Average Record
Temperature  
Mean Temperature 71 °F 57 °F  
Max Temperature 78 °F 66 °F 85 °F (1917)
Min Temperature 63 °F 47 °F 26 °F (1978)
Degree Days  
Heating Degree Days 0 9  
Month to date heating degree days 250 198  
Since 1 July heating degree days 1406 1141  
Cooling Degree Days 6 1  
Month to date cooling degree days 17 7  
Year to date cooling degree days 17 18  
Growing Degree Days 21 (Base 50)    
Moisture  
Dew Point 64 °F    
Average Humidity 81    
Maximum Humidity 100    
Minimum Humidity 62    
Precipitation  
Precipitation 0.00 in 0.12 in 2.18 in (1903)
Month to date precipitation 1.71 2.51  
Year to date precipitation 2.98 7.77  
Snow  
Snow 0.00 in 0.00 in T in (1969)
Month to date snowfall T 0.0  
Since 1 July snowfall 0.3 T  
Snow Depth 0.00 in    
Sea Level Pressure  
Sea Level Pressure 29.95 in    
Wind  
Wind Speed 12 mph (SSE)    
Max Wind Speed 21 mph    
Max Gust Speed 26 mph    
Visibility 4 miles    
Events Fog    
T = Trace of Precipitation, MM = Missing Value Source: NWS Daily Summary

Daily Weather History Graph

Daily Weather History Graph

Search for Another Location

Airport or City:

Trip Planner

Search our weather history database for the weather conditions in past years. The results will help you decide how hot, cold, wet, or windy it might be!

Date:

Astronomy

Feb. 19, 2014 Rise Set
Actual Time 6:52 AM CST 6:08 PM CST
Civil Twilight 6:27 AM CST 6:32 PM CST
Nautical Twilight 5:59 AM CST 7:00 PM CST
Astronomical Twilight 5:32 AM CST 7:28 PM CST
Moon 10:37 PM CST (2/19) 9:20 AM CST (2/19)
Length of Visible Light 12h 04m
Length of Day
11h 15m
Waning Gibbous, 79% of the Moon is Illuminated
Feb 19
Waning Gibbous
Feb 22
Last Quarter
Mar 1
New
Mar 8
First Quarter
Mar 16
Full

Hourly Weather History & Observations

Time (CST) Temp. Dew Point Humidity Pressure Visibility Wind Dir Wind Speed Gust Speed Precip Events Conditions
12:08 AM 64.0 °F 63.0 °F 96% 30.01 in 1.0 mi South 10.4 mph - N/A   Mist
12:16 AM 64.0 °F 63.0 °F 96% 29.99 in 0.8 mi South 10.4 mph - N/A   Mist
12:53 AM 64.0 °F 63.0 °F 96% 29.99 in 0.5 mi South 11.5 mph - N/A Fog Fog
1:53 AM 64.0 °F 63.0 °F 96% 29.99 in 0.8 mi South 9.2 mph - N/A   Mist
2:06 AM 64.0 °F 63.0 °F 96% 29.99 in 1.0 mi South 6.9 mph - N/A   Mist
2:49 AM 64.4 °F 62.6 °F 94% 29.99 in 0.8 mi South 3.5 mph - N/A   Mist
2:53 AM 64.0 °F 63.0 °F 96% 29.99 in 0.5 mi South 3.5 mph - N/A Fog Fog
3:53 AM 64.9 °F 64.0 °F 97% 29.99 in 0.5 mi South 3.5 mph - N/A Fog Fog
4:53 AM 64.0 °F 64.0 °F 100% 30.00 in 0.5 mi South 4.6 mph - N/A Fog Fog
5:53 AM 64.0 °F 63.0 °F 96% 29.99 in 0.5 mi SSE 4.6 mph - N/A Fog Fog
6:20 AM 64.0 °F 63.0 °F 96% 30.00 in 0.2 mi SE 4.6 mph - N/A Fog Fog
6:53 AM 64.0 °F 63.0 °F 96% 30.00 in 0.2 mi SSE 5.8 mph - N/A Fog Fog
7:53 AM 64.9 °F 64.0 °F 97% 30.01 in 0.2 mi SSE 6.9 mph - N/A Fog Fog
8:05 AM 64.9 °F 64.0 °F 97% 30.01 in 0.5 mi ESE 4.6 mph - N/A Fog Fog
8:53 AM 66.9 °F 66.0 °F 97% 30.02 in 0.5 mi SSE 9.2 mph - N/A Fog Fog
9:08 AM 66.9 °F 66.0 °F 97% 30.02 in 1.5 mi SSE 10.4 mph - N/A   Overcast
9:16 AM 66.0 °F 64.9 °F 96% 30.02 in 2.5 mi SSE 9.2 mph - N/A   Overcast
9:39 AM 68.0 °F 66.0 °F 93% 30.02 in 4.0 mi SSE 8.1 mph - N/A   Overcast
9:53 AM 66.9 °F 66.0 °F 97% 30.02 in 3.0 mi SSE 8.1 mph - N/A   Overcast
10:53 AM 69.1 °F 66.0 °F 90% 30.01 in 9.0 mi South 10.4 mph - N/A   Overcast
11:11 AM 71.1 °F 66.0 °F 84% 30.00 in 10.0 mi SSE 11.5 mph - N/A   Overcast
11:53 AM 71.1 °F 64.9 °F 81% 29.99 in 10.0 mi South 13.8 mph - N/A   Overcast
12:31 PM 73.0 °F 64.9 °F 76% 29.97 in 10.0 mi South 15.0 mph - N/A   Overcast
12:53 PM 73.0 °F 64.9 °F 76% 29.96 in 10.0 mi South 11.5 mph - N/A   Overcast
1:13 PM 73.9 °F 64.9 °F 73% 29.95 in 10.0 mi South 13.8 mph - N/A   Overcast
1:53 PM 78.1 °F 64.0 °F 62% 29.94 in 10.0 mi South 19.6 mph 26.5 mph N/A   Mostly Cloudy
2:10 PM 77.0 °F 64.0 °F 64% 29.93 in 10.0 mi South 16.1 mph 23.0 mph N/A   Partly Cloudy
2:53 PM 75.9 °F 63.0 °F 64% 29.92 in 10.0 mi South 20.7 mph - N/A   Clear
3:53 PM 75.0 °F 63.0 °F 66% 29.90 in 10.0 mi SSE 16.1 mph 24.2 mph N/A   Clear
4:53 PM 72.0 °F 63.0 °F 73% 29.89 in 10.0 mi South 18.4 mph 25.3 mph N/A   Clear
5:53 PM 68.0 °F 64.0 °F 87% 29.90 in 6.0 mi SSE 12.7 mph - N/A   Partly Cloudy
6:07 PM 68.0 °F 64.0 °F 87% 29.90 in 9.0 mi SSE 16.1 mph 24.2 mph N/A   Overcast
6:14 PM 66.9 °F 64.0 °F 90% 29.89 in 2.0 mi SSE 19.6 mph - N/A   Overcast
6:45 PM 66.0 °F 64.0 °F 93% 29.90 in 3.0 mi SSE 12.7 mph - N/A   Overcast
6:53 PM 66.0 °F 64.0 °F 93% 29.89 in 3.0 mi SSE 12.7 mph - N/A   Overcast
7:46 PM 66.9 °F 64.0 °F 90% 29.88 in 3.0 mi SE 12.7 mph - N/A   Mostly Cloudy
7:53 PM 66.0 °F 64.0 °F 93% 29.88 in 3.0 mi SSE 15.0 mph - N/A   Mostly Cloudy
8:40 PM 64.9 °F 64.0 °F 97% 29.89 in 1.0 mi SSE 12.7 mph - N/A   Overcast
8:53 PM 64.9 °F 64.0 °F 97% 29.89 in 1.0 mi SE 13.8 mph - N/A   Overcast
8:59 PM 64.9 °F 64.0 °F 97% 29.89 in 3.0 mi SE 11.5 mph - N/A   Overcast
9:53 PM 66.0 °F 64.0 °F 93% 29.88 in 3.0 mi SSE 17.3 mph 21.9 mph N/A   Overcast
10:53 PM 66.0 °F 64.0 °F 93% 29.87 in 3.0 mi SSE 16.1 mph - N/A   Overcast
11:19 PM 66.0 °F 64.9 °F 96% 29.87 in 2.5 mi SSE 16.1 mph - N/A   Overcast
11:40 PM 66.0 °F 64.9 °F 96% 29.86 in 3.0 mi SSE 13.8 mph - N/A   Overcast
11:53 PM 66.0 °F 64.9 °F 96% 29.86 in 2.5 mi SSE 13.8 mph - N/A   Overcast